Weather History for Marrakech, Morocco

Change the Weather History Date:

Tuesday, December 25, 2012

  Actual Average Record
Temperature  
Mean Temperature 57 °F -  
Max Temperature 70 °F 63 °F 73 °F (1997)
Min Temperature 44 °F 42 °F 33 °F (2006)
Degree Days  
Heating Degree Days 8    
Growing Degree Days 7 (Base 50)    
Moisture  
Dew Point 48 °F    
Average Humidity 69    
Maximum Humidity 88    
Minimum Humidity 44    
Precipitation  
Precipitation 0.00 in 0.04 in - ()
Sea Level Pressure  
Sea Level Pressure 30.17 in    
Wind  
Wind Speed 5 mph ()    
Max Wind Speed 13 mph    
Max Gust Speed -    
Visibility 6.1 miles    
Events      
Averages and records for this station are not official NWS values.
T = Trace of Precipitation, MM = Missing Value Source: Averaged Metar Reports

Daily Weather History Graph

Daily Weather History Graph

Search for Another Location

Airport:

Trip Planner

Search our weather history database for the weather conditions in past years. The results will help you decide how hot, cold, wet, or windy it might be!

Date:

Astronomy

Dec. 25, 2012 Rise Set
Actual Time 7:29 AM WET 5:35 PM WET
Civil Twilight 7:02 AM WET 6:02 PM WET
Nautical Twilight 6:32 AM WET 6:32 PM WET
Astronomical Twilight 6:02 AM WET 7:02 PM WET
Moon 3:31 PM WET (12/25) 4:53 AM WET (12/25)
Length of Visible Light 10h 59m
Length of Day
10h 05m
Waxing Gibbous, 92% of the Moon is Illuminated
Dec 25
Waxing Gibbous
Dec 28
Full
Jan 5
Last Quarter
Jan 11
New
Jan 18
First Quarter

Hourly Weather History & Observations

Time (WET) Temp. Dew Point Humidity Pressure Visibility Wind Dir Wind Speed Gust Speed Precip Events Conditions
12:00 AM 56 °F 41 °F 46% 30.11 in 6 mi South 1.2 mph - -  
12:00 AM 55.4 °F 41.0 °F 58% 30.09 in - Calm Calm - N/A   Clear
2:00 AM 53.6 °F 39.2 °F 58% 30.12 in - SW 4.6 mph - N/A   Clear
2:30 AM 51.8 °F 39.2 °F 62% 30.12 in - SSW 4.6 mph - N/A   Clear
3:00 AM 57 °F 41 °F 44% 30.12 in 6 mi SW 6.9 mph - -  
3:00 AM 55.4 °F 41.0 °F 58% 30.12 in - SW 5.8 mph - N/A   Clear
3:30 AM 57.2 °F 44.6 °F 63% 30.12 in - SSW 6.9 mph - N/A   Clear
4:00 AM 55.4 °F 44.6 °F 67% 30.12 in - SW 9.2 mph - N/A   Clear
4:30 AM 53.6 °F 44.6 °F 72% 30.12 in - WSW 3.5 mph - N/A   Clear
5:00 AM 51.8 °F 44.6 °F 76% 30.12 in - SW 4.6 mph - N/A   Clear
5:30 AM 55.4 °F 48.2 °F 77% 30.12 in - SW 6.9 mph - N/A   Clear
6:00 AM 56 °F 50 °F 73% 30.14 in 6 mi SW 6.9 mph - -  
6:00 AM 57.2 °F 50.0 °F 77% 30.12 in - SW 6.9 mph - N/A   Clear
6:30 AM 57.2 °F 50.0 °F 77% 30.15 in 6.2 mi SW 6.9 mph - N/A   Scattered Clouds
7:00 AM 57.2 °F 50.0 °F 77% 30.15 in 6.2 mi SSW 4.6 mph - N/A   Mostly Cloudy
7:30 AM 57.2 °F 48.2 °F 72% 30.15 in 6.2 mi SW 3.5 mph - N/A   Mostly Cloudy
8:00 AM 55.4 °F 50.0 °F 82% 30.15 in 6.2 mi Variable 1.2 mph - N/A   Mostly Cloudy
8:30 AM 55.4 °F 48.2 °F 77% 30.18 in 5.6 mi Variable 2.3 mph - N/A   Scattered Clouds
9:00 AM 56 °F 50 °F 73% 30.18 in 6 mi Calm Calm - -   Mostly Cloudy
9:00 AM 57.2 °F 50.0 °F 77% 30.18 in 6.2 mi Calm Calm - N/A   Scattered Clouds
9:30 AM 57.2 °F 51.8 °F 82% 30.18 in 6.2 mi West 3.5 mph - N/A   Scattered Clouds
10:00 AM 57.2 °F 53.6 °F 88% 30.21 in 6.2 mi West 3.5 mph - N/A   Scattered Clouds
10:30 AM 59.0 °F 53.6 °F 82% 30.21 in 6.2 mi WNW 3.5 mph - N/A   Scattered Clouds
11:00 AM 59.0 °F 55.4 °F 88% 30.21 in 5.6 mi NW 4.6 mph - N/A   Scattered Clouds
11:30 AM 59.0 °F 53.6 °F 82% 30.21 in 6.2 mi NNW 4.6 mph - N/A   Scattered Clouds
12:00 PM 59 °F 54 °F 77% 30.19 in 6 mi North 3.5 mph - -   Overcast
12:00 PM 59.0 °F 53.6 °F 82% 30.21 in 6.2 mi North 3.5 mph - N/A   Scattered Clouds
12:30 PM 60.8 °F 50.0 °F 68% 30.18 in 6.2 mi North 3.5 mph - N/A   Scattered Clouds
1:00 PM 60.8 °F 50.0 °F 68% 30.18 in 6.2 mi Variable 2.3 mph - N/A   Scattered Clouds
1:30 PM 62.6 °F 50.0 °F 63% 30.18 in 6.2 mi NNW 3.5 mph - N/A   Scattered Clouds
2:00 PM 62.6 °F 50.0 °F 63% 30.15 in 6.2 mi NNW 4.6 mph - N/A   Scattered Clouds
2:30 PM 62.6 °F 51.8 °F 68% 30.15 in 6.2 mi Variable 2.3 mph - N/A   Scattered Clouds
3:00 PM 63 °F 51 °F 57% 30.13 in 6 mi NNW 6.9 mph - -   Mostly Cloudy
3:00 PM 62.6 °F 51.8 °F 68% 30.15 in 6.2 mi NNW 6.9 mph - N/A   Scattered Clouds
3:30 PM 62.6 °F 51.8 °F 68% 30.15 in 6.2 mi WNW 5.8 mph - N/A   Scattered Clouds
4:00 PM 62.6 °F 50.0 °F 63% 30.15 in 6.2 mi NW 6.9 mph - N/A   Scattered Clouds
4:30 PM 62.6 °F 50.0 °F 63% 30.15 in 6.2 mi NW 8.1 mph - N/A   Scattered Clouds
5:00 PM 60.8 °F 48.2 °F 63% 30.15 in 6.2 mi NNW 6.9 mph - N/A   Scattered Clouds
5:30 PM 60.8 °F 48.2 °F 63% 30.18 in 6.2 mi North 9.2 mph - N/A   Scattered Clouds
6:00 PM 60 °F 47 °F 53% 30.17 in 6 mi North 8.1 mph - -   Mostly Cloudy
6:00 PM 60.8 °F 48.2 °F 63% 30.18 in 6.2 mi North 9.2 mph - N/A   Scattered Clouds
6:30 PM 59.0 °F 48.2 °F 67% 30.18 in 6.2 mi North 9.2 mph - N/A   Scattered Clouds
7:00 PM 59.0 °F 48.2 °F 67% 30.21 in 6.2 mi NNE 9.2 mph - N/A   Scattered Clouds
7:30 PM 59.0 °F 48.2 °F 67% 30.21 in 6.2 mi NNE 10.4 mph - N/A   Scattered Clouds
8:00 PM 59.0 °F 48.2 °F 67% 30.21 in 6.2 mi NNE 10.4 mph - N/A   Scattered Clouds
8:30 PM 57.2 °F 48.2 °F 72% 30.21 in 6.2 mi NNE 9.2 mph - N/A   Scattered Clouds
9:00 PM 57 °F 48 °F 62% 30.23 in 6 mi NE 12.7 mph - -   Mostly Cloudy
9:00 PM 57.2 °F 48.2 °F 72% 30.21 in 6.2 mi NE 12.7 mph - N/A   Scattered Clouds
9:30 PM 57.2 °F 48.2 °F 72% 30.24 in 6.2 mi NNE 10.4 mph - N/A   Scattered Clouds
10:00 PM 57.2 °F 48.2 °F 72% 30.24 in 6.2 mi NE 6.9 mph - N/A   Scattered Clouds
10:30 PM 57.2 °F 48.2 °F 72% 30.24 in 6.2 mi NNE 5.8 mph - N/A   Scattered Clouds
11:00 PM 55.4 °F 48.2 °F 77% 30.27 in 6.2 mi NE 9.2 mph - N/A   Scattered Clouds
11:30 PM 55.4 °F 48.2 °F 77% 30.27 in 6.2 mi NE 8.1 mph - N/A   Scattered Clouds